Location: Colconda
(10.2500°N, 61.4333°W)
Time: 05:00:30
(UTC+00:00)

Daily predictions for brighter satellites

Satellite Brightness Start Highest point End
(mag) Time Altitude Azimuth Time Altitude Azimuth Time Altitude Azimuth
Resurs 01 Rocket 2.7 00:00:51 10° S 00:05:06 44° W 00:08:43 14° NNW
H-2A ROCKET BODY 4.5 00:01:15 10° WNW 00:07:57 16° NNW 00:09:18 15° N
Meteor 2-3 Rocket 4.4 00:05:59 10° SSW 00:11:27 51° W 00:13:39 33° NNW
Atlas Centaur 2 4.3 00:21:44 10° WSW 00:23:16 12° SW 00:23:50 11° SSW
DELTA-4 R/B 4.2 00:24:23 10° W 00:38:32 58° WNW 00:38:32 58° WNW
Milstar 3 3.3 00:37:50 10° WNW 00:43:39 68° WNW 00:43:39 68° WNW
CZ-3B Rocket 3.7 07:41:56 78° SSE 07:42:03 78° SSE 08:31:58 10° ENE
CZ-3B Rocket 3.7 07:41:56 78° SSE 07:42:04 78° SSE 08:31:58 10° ENE
Milstar 3 Cent rocket 3.9 07:52:45 70° NNW 07:52:45 70° NNW 08:01:20 10° NE
Cosmos 2263 Rocket 4.2 07:58:48 10° SSE 08:03:16 24° ESE 08:07:46 10° NE
Mugunghwa Rocket 4.1 08:17:19 88° SSE 08:17:19 88° SSE 08:24:07 10° ESE
Cosmos 2219 Rocket 4.4 08:26:41 13° SSW 08:26:41 13° SSW 08:27:20 10° SSW
Ariane H10+ 3.4 08:28:26 38° S 08:28:26 38° S 08:31:46 10° ESE
Cosmos 2333 Rocket 3.8 08:33:52 22° SSW 08:33:52 22° SSW 08:36:03 10° S
ARIANE 5 R/B 3.4 08:37:39 19° SSE 08:37:39 19° SSE 08:38:43 10° SE
Intelsat 5-3 Rocket 4.3 08:34:43 43° NNW 08:36:41 54° NNE 08:52:09 10° E
Feng Yun 1-1 Rocket 4.4 08:42:38 54° SW 08:42:38 54° SW 08:47:19 10° SSW
Meteor 2-1 Rocket 4.5 08:36:21 10° S 08:41:51 67° E 08:47:26 10° NNE
Tsikada Rocket 3.9 08:46:36 45° NNW 08:48:26 66° W 08:54:34 10° S
Aureole 2 Rocket 4.4 08:53:33 22° S 08:53:33 22° S 08:54:56 10° S
ATLAS 3B CENTAUR R/B 3.5 08:54:34 22° N 08:54:46 22° N 09:00:40 10° NE
USA 116 4.5 08:50:45 10° SSE 08:55:52 71° ENE 08:59:23 18° N
Cosmos 1072 Rocket 4.3 08:54:17 10° S 09:00:32 83° W 09:06:40 10° N
Cosmos 1898 Rocket 4.4 08:55:53 10° S 09:00:54 49° E 09:05:56 10° NNE
Cosmos 2237 Rocket 3.5 09:02:40 23° SW 09:02:40 23° SW 09:05:49 10° SSW
Cosmos 2344 3.6 08:54:58 10° SW 09:03:10 60° WNW 09:10:44 10° NNE
Cosmos 304 Rocket 3.6 09:01:18 35° NNW 09:03:19 82° W 09:08:06 10° S
ARIANE 5 R/B 4.4 08:47:21 10° WSW 09:03:20 27° SSW 09:07:29 10° SE
Cosmos 1743 Rocket 3.7 09:04:22 49° WSW 09:04:22 49° WSW 09:08:18 10° SSW
Ariane Rocket 4.0 08:59:22 10° NNE 09:04:17 49° ESE 09:09:12 10° S
CZ-3B DEB 4.0 09:02:03 10° S 09:08:09 26° SE 09:11:18 10° ENE
SL-16 R/B 2.1 09:06:59 27° NNW 09:10:02 64° WSW 09:15:38 10° S
Cosmos 2058 3.8 09:08:52 10° N 09:12:53 49° E 09:16:57 10° SSE
USA 229 DEB 3.8 09:11:34 21° NW 09:16:37 64° WSW 09:23:49 10° SSE
USA 229 3.8 09:11:35 20° NW 09:16:43 65° WSW 09:23:54 10° SSE
ATLAS 2AS CENTAUR RB 0.3 09:18:17 54° SSE 09:18:17 54° SSE 09:20:05 10° ESE
NOSS 3-3 (A) 3.8 09:12:37 10° SSW 09:18:39 76° WNW 09:24:49 10° NNE
NOSS 3-3 (C) 3.8 09:12:44 10° SSW 09:18:46 77° WNW 09:24:57 10° NNE
Ariane 3 Deb 3.5 09:16:33 17° W 09:23:50 60° S 09:27:05 10° ESE
Cosmos 1937 Rocket 3.9 09:21:28 10° S 09:26:35 64° ESE 09:31:39 10° NNE
ARIANE 5 R/B 4.5 00:20:28 10° W 09:28:40 52° SSW 09:33:24 10° ESE
Cosmos 1500 Rocket 4.2 09:26:48 21° NW 09:29:02 34° W 09:33:04 10° SSW
Thor Agena Rocket 3.6 09:24:19 10° S 09:29:26 58° WSW 09:34:36 10° NNW
Cosmos 2228 Rocket 3.8 09:28:03 10° S 09:32:26 56° E 09:36:45 10° NNE
CZ-3 R/B 2.8 09:20:15 19° WNW 09:33:03 52° SW 09:38:28 10° SE
IDEFIX/ARIANE 42P 4.3 09:28:59 10° NE 09:33:47 36° E 09:38:33 10° SSE
IUS-13 SRM-1 3.9 09:34:44 10° N 09:35:51 12° NE 09:37:21 10° ENE
Cosmos 773 Rocket 4.1 09:30:58 10° N 09:36:16 81° ENE 09:41:32 10° SSE
Cosmos 482 Debris 4.1 09:34:13 11° SW 09:37:04 58° NW 09:42:05 10° NNE
Sakura Rocket 4.2 09:35:38 10° SW 09:38:56 34° SSE 09:42:36 10° E
GPS 2-12 Rocket1 4.1 09:39:33 17° WNW 09:42:06 28° N 09:45:57 10° NE
Cosmos 2221 4.0 09:42:10 10° SW 09:45:03 17° W 09:47:56 10° NW
NOSS 2-1 (E) 3.9 09:41:19 10° SSW 09:45:28 61° ESE 09:49:12 10° NNE
Cosmos 2263 Rocket 3.2 09:42:28 10° SW 09:46:56 24° WNW 09:51:25 10° NNW
Cosmos 2298 Rocket 4.2 09:43:23 10° SSW 09:48:29 48° WNW 09:53:33 10° N
Cosmos 389 Rocket 3.1 09:45:21 10° SSW 09:48:42 35° W 09:52:04 10° NNW
Cosmos 1844 Rocket 3.9 09:43:50 10° S 09:49:11 46° ESE 09:54:33 10° NNE
Cosmos 1703 3.2 09:47:24 10° N 09:51:21 83° W 09:55:18 10° S
CZ-2C R/B 3.0 09:47:28 10° NNE 09:51:58 57° E 09:56:35 10° S
SKYMED 2 3.5 09:49:01 10° S 09:53:19 70° WSW 09:57:37 10° NNW
CSL-04 DEB 4.5 09:50:17 10° N 09:54:26 58° WNW 09:58:29 10° SSW
Cosmos 2034 Rocket 4.5 09:50:40 10° SSW 09:56:14 36° W 10:01:52 10° NNW
Cosmos 1726 3.6 09:53:31 10° SSE 09:56:58 41° E 10:00:26 10° NNE
CZ-4 R/B 1.7 09:54:27 10° NNE 09:58:36 78° ESE 10:02:47 10° S
CSL-04 Debris 4.2 09:54:08 10° N 09:59:26 57° WNW 10:04:43 10° SSW
ISS -2.6 09:56:30 10° NW 09:59:30 37° SW 10:02:32 10° SSE
Cosmos 292 Rocket 3.9 09:55:11 10° N 09:59:59 81° ENE 10:04:49 10° SSE
ERBS 2.4 09:58:27 10° NW 10:01:47 58° WSW 10:05:09 10° SSE
SWIFT 2.3 09:57:44 10° WNW 10:01:59 83° SSW 10:06:12 10° ESE
SJ-12 3.9 10:00:58 10° N 10:05:01 83° W 10:09:05 10° SSW
SMAP 3.4 10:02:18 10° NNE 10:06:56 75° ESE 10:11:34 10° S
Nadezhda 4 Rocket 4.3 10:01:51 10° N 10:08:05 74° E 10:14:16 10° S
NOSS 3-1 (C) 4.3 10:00:19 10° NNW 10:08:35 72° WSW 10:17:03 10° SSE
